Wind_Speed
5 5 5 5 5 5 6 6 7 7 6 5 5 5 6 6 6 5 5 4 4 4 5 4 4 3 3 3 3 4 4 5 4 4 4 5 5 5 5 4 4 4 3 4
6 6 6 6 6 6 6 6 6 6 6 5 5 5 5 6 6 5 5 4 5 5 4 4 4 4 3 4 4 4 4 4 4 4 5 5 5 5 5 5 5 4 4 4
8 7 7 7 7 7 6 7 6 7 7 7 7 6 5 6 6 6 5 5 5 5 5 5 4 4 5 5 5 5 5 5 5 5 5 5 5 5 6 6 5 4 4 4
9 8 8 8 8 8 7 8 8 8 8 8 7 6 6 7 7 6 6 6 6 5 5 5 5 5 5 6 5 6 6 6 6 6 5 6 6 6 6 6 5 5 5 5
9 9 9 9 9 9 9 9 9 9 9 8 8 7 7 7 7 7 7 7 7 6 5 5 6 6 6 6 6 6 6 6 7 7 7 7 7 7 7 7 6 6 6 5
10 10 9 9 9 9 9 10 10 9 9 8 8 8 8 8 8 8 8 8 7 6 6 6 6 6 6 6 6 7 7 7 7 8 7 7 7 7 8 7 7 7 7 7
11 10 10 9 9 10 10 10 10 10 10 10 9 8 8 8 9 9 9 8 8 7 7 7 7 6 6 6 7 7 7 7 7 8 8 7 7 7 7 7 7 7 7 8
11 11 10 10 10 10 10 10 10 11 10 10 9 9 9 9 9 9 9 9 8 8 7 7 7 6 7 7 7 7 7 7 7 8 7 7 7 7 7 7 7 8 8 8
11 11 11 11 11 11 10 10 10 11 11 11 11 10 9 9 10 10 9 9 9 8 7 7 7 7 7 7 7 7 7 8 8 8 8 8 8 8 8 8 8 8 8 9
12 12 12 12 12 12 12 11 11 12 12 12 11 10 10 10 10 10 9 9 9 9 8 7 7 7 7 7 8 8 8 9 9 9 9 9 9 9 9 9 9 9 9 10
14 13 12 12 13 13 13 13 13 14 14 13 12 12 11 11 10 10 10 10 9 9 9 8 8 8 9 8 8 8 9 9 10 9 9 9 9 10 10 10 9 9 9 9
16 16 15 14 15 15 15 14 14 15 15 14 14 13 12 11 11 11 12 11 11 11 10 10 10 10 10 10 9 9 10 10 11 11 10 10 11 11 11 11 10 10 10 9
17 17 16 16 16 16 16 15 15 16 16 15 15 14 13 12 12 12 12 12 12 12 11 11 11 11 11 11 11 11 11 11 12 12 12 12 12 12 12 12 11 11 11 10
18 18 18 18 17 17 17 17 17 17 16 16 15 14 13 13 13 13 13 13 13 13 12 12 12 12 12 12 12 12 12 12 12 13 13 13 13 13 13 12 12 11 11 11
20 20 20 19 19 19 18 18 18 18 17 17 15 14 13 13 13 13 14 15 15 14 13 13 13 13 14 13 13 14 14 14 14 14 14 13 13 13 13 13 12 12 12 12
20 20 20 20 20 20 19 19 19 19 18 18 17 16 15 14 14 14 15 16 16 15 15 15 15 14 15 15 14 15 15 15 15 14 14 14 13 13 13 13 13 13 13 13
21 21 21 21 20 21 20 19 20 19 18 18 18 17 16 15 15 16 16 16 16 16 15 15 15 15 15 16 16 16 16 15 15 15 14 14 14 14 13 13 13 13 13 14
22 22 22 22 22 22 19 19 19 19 18 18 17 17 17 17 17 17 18 18 16 16 16 16 15 15 16 16 17 17 17 16 15 15 15 14 14 14 14 13 13 14 14 14
23 23 23 23 22 20 18 18 19 19 18 17 17 18 18 18 18 18 18 18 17 17 17 17 17 17 17 18 18 18 18 17 16 16 15 15 15 15 15 15 15 15 15 16
24 24 24 23 24 22 19 20 20 20 19 18 18 18 18 18 19 18 19 18 18 18 18 18 19 19 19 19 19 19 19 19 18 17 16 16 16 16 17 17 17 17 18 18
25 25 25 24 24 23 22 21 21 21 20 20 19 19 19 19 20 20 20 20 20 20 20 20 20 20 20 20 20 20 20 20 19 18 17 17 17 18 18 19 19 20 19 19
26 26 25 25 25 24 24 23 23 23 22 21 21 21 21 21 21 21 21 21 22 22 22 22 21 21 21 21 21 21 21 21 20 19 19 19 19 20 20 20 20 20 20 20
26 26 26 25 25 25 25 24 24 25 24 23 22 23 23 23 23 23 23 24 23 23 23 23 23 22 22 22 22 22 22 21 21 21 21 21 21 22 21 21 22 22 21 21
28 27 27 26 25 26 26 26 25 26 26 25 24 24 25 25 25 25 25 25 25 25 25 24 24 23 22 22 23 22 23 22 22 22 22 23 23 22 22 23 23 23 23 23
29 29 28 27 27 27 27 28 28 28 28 28 27 26 27 26 26 26 26 26 25 25 26 25 25 25 24 23 23 23 23 24 23 24 24 24 24 23 24 24 24 24 24 25
29 29 29 28 28 29 29 28 29 29 29 29 28 28 28 28 28 28 27 27 26 26 26 25 25 25 24 24 24 24 24 25 25 25 25 25 25 25 26 26 26 26 26 26
Wind_Direction
270 275 280 289 300 309 317 320 324 329 332 331 338 341 342 341 343 344 347 347 340 340 340 344 346 346 343 341 344 342 343 340 336 332 330 323 307 299 297 294 291 290 289 282
267 273 278 284 294 300 311 317 320 321 326 331 330 330 334 330 334 339 340 341 343 344 338 340 346 354 343 338 332 328 335 336 335 332 329 323 318 310 302 292 284 285 285 284
266 271 276 279 283 290 300 304 307 312 316 318 318 316 319 321 321 323 325 328 327 331 330 326 327 330 334 328 323 318 320 326 329 331 329 322 312 308 304 297 294 292 283 279
263 268 273 276 277 281 286 291 294 299 306 309 310 311 319 321 319 315 317 319 321 321 321 319 318 315 317 321 319 314 315 317 318 319 318 318 316 311 307 299 295 290 281 274
263 271 273 273 275 276 277 284 288 294 300 302 301 303 315 319 315 313 313 316 317 314 316 316 316 312 310 313 315 312 314 316 315 312 312 313 314 313 308 298 291 286 281 272
265 271 274 275 277 278 278 281 285 290 294 295 299 301 310 315 314 313 311 314 313 310 309 310 312 312 311 314 314 313 315 314 312 311 311 311 312 312 310 303 296 286 276 271
264 268 272 275 278 280 278 279 283 287 292 295 297 299 305 308 308 310 308 314 307 305 307 314 313 311 312 313 312 313 315 316 311 307 308 308 308 311 312 304 295 287 275 270
265 267 270 274 276 276 277 277 282 287 293 296 295 298 304 304 303 308 309 310 310 306 306 308 312 311 312 311 309 308 312 317 316 313 310 308 305 305 306 303 294 284 273 270
263 267 269 272 272 272 273 276 281 287 292 294 294 297 300 303 303 308 310 307 309 309 306 305 308 308 308 307 303 305 308 310 313 313 310 306 305 304 303 304 301 292 280 275
263 266 271 270 269 270 272 275 280 284 289 290 290 292 297 302 304 305 308 308 309 309 308 308 308 310 310 306 301 303 308 310 311 311 309 304 303 302 303 303 305 300 290 280
262 265 268 269 268 271 273 273 276 280 284 286 287 289 292 297 299 301 303 303 303 304 303 304 304 308 309 306 302 303 305 306 307 307 307 305 303 302 301 298 298 299 296 286
261 264 266 268 270 271 273 274 274 277 280 281 283 286 290 290 289 291 295 296 295 297 298 296 297 299 301 301 300 302 305 304 303 303 302 301 300 298 299 297 296 295 293 288
261 263 266 267 269 272 274 276 276 276 277 279 281 284 285 284 283 286 288 291 293 294 294 294 294 295 296 297 297 299 302 302 300 298 297 295 294 294 293 293 292 290 286 284
261 264 266 269 272 272 272 274 274 274 275 278 280 281 280 281 279 280 281 283 286 289 291 290 291 292 294 294 296 298 301 301 298 298 296 293 292 290 287 285 285 284 282 281
261 266 268 269 270 270 269 270 271 271 274 276 278 276 277 279 280 280 279 280 283 284 283 285 287 290 289 290 294 296 298 297 295 295 298 296 291 289 287 283 281 280 280 281
261 265 267 269 270 271 270 269 269 269 273 275 275 275 274 274 277 279 280 281 281 282 283 284 284 286 289 290 292 295 294 293 292 293 294 295 291 288 286 285 283 280 280 281
261 264 267 270 271 271 270 269 269 269 272 274 274 274 272 273 275 277 279 280 279 279 281 282 282 284 286 286 287 290 294 291 290 291 291 292 290 288 288 287 286 281 279 280
262 265 268 270 270 271 273 269 269 269 269 271 271 271 273 274 275 277 279 279 279 280 281 281 281 283 286 286 287 288 288 292 289 288 288 289 289 290 290 285 282 281 281 282
261 264 267 267 269 271 271 270 269 270 269 269 269 271 272 273 275 276 278 278 279 280 281 282 282 282 285 288 288 287 287 288 289 289 288 288 288 288 288 286 282 281 281 282
260 263 266 267 268 268 269 269 269 269 268 267 269 270 272 273 274 275 277 277 277 279 281 281 282 283 284 287 287 286 285 285 287 286 285 284 284 285 286 286 284 281 279 279
259 261 264 266 266 267 268 268 268 267 268 268 269 270 272 273 274 276 276 276 277 277 279 280 281 283 284 284 285 285 285 284 284 283 282 283 283 284 286 286 284 281 279 279
259 260 261 262 263 264 266 267 266 267 268 269 270 270 271 273 273 274 275 274 275 276 278 279 279 281 282 284 285 286 285 285 283 282 283 284 285 286 287 285 284 281 279 278
258 258 259 259 261 262 263 264 265 266 268 269 269 269 271 273 274 274 275 274 274 277 278 279 278 278 281 284 286 284 283 282 283 281 282 284 286 286 285 284 284 282 280 279
257 259 260 259 259 260 262 264 265 267 269 269 269 270 272 273 273 274 276 277 276 277 278 277 277 278 280 282 283 282 282 282 282 282 283 284 285 286 284 283 284 283 281 280
258 260 261 260 259 258 259 263 266 267 268 269 270 271 273 274 274 274 274 275 275 275 275 276 277 277 278 280 281 281 282 283 282 282 282 283 285 285 284 283 283 283 283 281
257 260 261 261 260 259 259 261 264 267 268 269 270 271 272 273 273 274 275 276 276 276 275 274 276 277 278 279 279 280 281 282 283 282 281 282 284 284 284 282 282 282 283 282
Height
5880 5881 5881 5880 5880 5880 5879 5878 5877 5877 5875 5874 5873 5873 5872 5870 5869 5868 5867 5866 5865 5864 5863 5862 5861 5860 5860 5859 5858 5858 5857 5857 5856 5856 5855 5854 5854 5854 5853 5853 5852 5852 5852 5852
5880 5880 5880 5880 5879 5879 5879 5878 5877 5876 5875 5874 5873 5872 5871 5870 5869 5868 5867 5866 5865 5863 5862 5862 5861 5860 5859 5859 5858 5857 5857 5856 5856 5855 5854 5854 5853 5853 5852 5852 5852 5851 5851 5851
5879 5880 5879 5879 5878 5878 5878 5877 5876 5876 5875 5873 5873 5872 5871 5870 5869 5868 5867 5865 5864 5863 5862 5861 5860 5860 5859 5858 5857 5856 5856 5855 5855 5854 5853 5853 5852 5852 5851 5851 5850 5850 5850 5850
5877 5878 5878 5877 5877 5877 5876 5876 5875 5874 5874 5873 5872 5871 5871 5869 5868 5867 5866 5865 5863 5862 5861 5860 5860 5859 5858 5857 5856 5855 5855 5854 5854 5853 5852 5852 5851 5851 5850 5850 5849 5849 5849 5849
5876 5876 5876 5876 5875 5875 5875 5874 5874 5873 5872 5872 5871 5870 5871 5869 5867 5866 5865 5864 5862 5861 5860 5860 5859 5858 5857 5856 5855 5854 5854 5853 5852 5852 5851 5850 5850 5849 5848 5848 5848 5847 5847 5847
5874 5874 5874 5874 5873 5873 5873 5873 5872 5871 5871 5871 5870 5869 5869 5868 5866 5865 5864 5863 5861 5860 5859 5858 5857 5856 5855 5855 5854 5853 5853 5852 5851 5850 5849 5849 5848 5847 5847 5846 5846 5845 5845 5845
5872 5872 5872 5872 5871 5871 5871 5871 5870 5869 5869 5869 5868 5868 5868 5866 5865 5864 5863 5861 5860 5859 5858 5857 5856 5855 5854 5853 5853 5852 5851 5850 5849 5848 5847 5847 5846 5846 5845 5844 5844 5844 5843 5843
5869 5870 5870 5870 5870 5869 5869 5869 5869 5868 5867 5867 5866 5866 5866 5864 5863 5862 5861 5860 5859 5858 5857 5856 5855 5854 5853 5852 5851 5850 5849 5849 5848 5847 5846 5845 5844 5844 5843 5842 5842 5841 5841 5841
5867 5867 5867 5867 5867 5867 5867 5866 5866 5866 5865 5864 5864 5864 5864 5862 5861 5860 5859 5858 5857 5856 5855 5854 5853 5852 5851 5850 5849 5849 5848 5847 5846 5845 5844 5843 5842 5841 5841 5840 5839 5839 5839 5839
5864 5865 5865 5864 5864 5864 5865 5864 5864 5863 5862 5862 5862 5861 5862 5860 5859 5858 5857 5856 5855 5854 5853 5852 5851 5850 5849 5848 5847 5847 5846 5845 5844 5843 5842 5841 5840 5839 5838 5838 5837 5836 5836 5836
5861 5862 5862 5862 5862 5861 5862 5862 5861 5860 5860 5859 5859 5861 5859 5858 5857 5855 5855 5854 5853 5852 5851 5851 5850 5848 5847 5846 5845 5845 5844 5843 5842 5840 5839 5838 5837 5836 5836 5835 5834 5834 5833 5833
5857 5858 5858 5859 5859 5858 5858 5858 5858 5857 5857 5855 5855 5859 5856 5855 5854 5853 5852 5851 5850 5850 5849 5848 5847 5846 5845 5844 5843 5842 5841 5840 5839 5838 5837 5836 5835 5834 5833 5832 5831 5831 5831 5830
5853 5854 5854 5855 5857 5855 5854 5854 5853 5853 5852 5852 5852 5855 5852 5852 5851 5850 5849 5848 5847 5847 5846 5845 5844 5843 5842 5841 5840 5839 5838 5837 5836 5835 5834 5833 5832 5830 5830 5829 5828 5828 5828 5827
5848 5849 5850 5851 5851 5850 5850 5850 5849 5849 5848 5848 5849 5850 5849 5848 5847 5847 5846 5845 5844 5844 5843 5842 5841 5840 5839 5838 5837 5836 5835 5834 5833 5831 5830 5829 5828 5827 5826 5825 5825 5824 5824 5824
5843 5844 5844 5845 5845 5845 5845 5845 5845 5844 5844 5844 5845 5845 5845 5845 5844 5843 5842 5842 5841 5840 5839 5838 5837 5836 5836 5835 5834 5833 5832 5830 5829 5828 5826 5825 5824 5823 5822 5821 5821 5821 5821 5821
5839 5839 5839 5840 5840 5839 5840 5840 5839 5839 5840 5840 5840 5841 5841 5841 5840 5839 5838 5837 5837 5836 5835 5834 5833 5833 5832 5831 5830 5829 5828 5826 5825 5824 5822 5821 5820 5819 5818 5817 5817 5817 5817 5817
5833 5834 5834 5834 5834 5834 5834 5835 5834 5834 5835 5835 5835 5837 5836 5836 5835 5834 5834 5833 5832 5831 5831 5830 5829 5828 5827 5826 5825 5824 5823 5822 5821 5820 5819 5817 5816 5815 5814 5814 5813 5813 5813 5813
5828 5828 5828 5828 5829 5828 5832 5829 5829 5829 5830 5830 5830 5831 5831 5831 5830 5830 5829 5828 5827 5827 5826 5825 5825 5824 5823 5822 5820 5819 5818 5817 5816 5815 5815 5813 5812 5811 5810 5809 5809 5809 5808 5808
5823 5823 5822 5822 5822 5823 5825 5824 5824 5825 5825 5826 5826 5826 5826 5825 5825 5825 5824 5823 5822 5822 5821 5820 5819 5819 5818 5816 5815 5814 5813 5812 5811 5811 5810 5809 5808 5807 5806 5805 5804 5804 5803 5803
5816 5816 5817 5816 5816 5817 5820 5820 5819 5820 5821 5821 5821 5821 5821 5820 5820 5820 5819 5818 5817 5816 5816 5815 5814 5813 5812 5811 5810 5809 5808 5807 5806 5805 5805 5804 5803 5802 5801 5800 5799 5798 5798 5797
5809 5810 5810 5810 5810 5812 5813 5813 5814 5816 5817 5816 5815 5815 5815 5815 5815 5814 5813 5812 5811 5810 5810 5809 5808 5807 5806 5805 5804 5803 5802 5801 5800 5800 5799 5798 5797 5796 5795 5794 5793 5792 5791 5791
5802 5803 5803 5804 5804 5808 5807 5807 5808 5809 5809 5809 5809 5809 5809 5809 5808 5807 5807 5806 5805 5804 5803 5802 5802 5801 5800 5799 5798 5797 5796 5795 5794 5794 5793 5793 5791 5790 5789 5788 5786 5785 5784 5784
5794 5796 5796 5798 5800 5799 5799 5800 5801 5801 5802 5802 5802 5802 5802 5802 5801 5800 5800 5799 5798 5797 5797 5795 5795 5794 5793 5792 5791 5790 5790 5789 5788 5788 5787 5786 5785 5784 5782 5781 5780 5778 5777 5777
5787 5788 5789 5790 5792 5792 5792 5793 5793 5794 5795 5795 5795 5795 5795 5794 5794 5793 5792 5791 5791 5790 5789 5788 5787 5787 5787 5786 5785 5784 5783 5782 5782 5781 5780 5779 5778 5777 5775 5774 5773 5772 5771 5770
5779 5780 5781 5782 5784 5784 5785 5785 5786 5786 5787 5787 5787 5787 5787 5786 5786 5785 5785 5784 5783 5782 5781 5781 5780 5780 5780 5779 5779 5778 5777 5776 5775 5774 5774 5772 5771 5770 5769 5767 5766 5765 5764 5762
5771 5772 5773 5774 5775 5776 5777 5778 5778 5778 5779 5779 5779 5779 5778 5778 5777 5777 5776 5776 5775 5774 5773 5773 5772 5772 5772 5772 5772 5771 5770 5769 5768 5767 5766 5765 5764 5762 5761 5760 5758 5757 5756 5755